Regional Weather Roundup
Issued by NWS

Home | Current Version | Previous Version | Text Only | Print | Product List | Glossary Off
Versions: 1 2 3 4 5 6 7 8 9 10 11 12 13 14 15 16 17 18 19 20 21 22 23 24 25 26 27 28 29 30 31 32 33 34 35 36 37 38 39 40 41 42 43 44 45 46 47 48 49 50

000
ASUS45 KBOU 192007
RWRCO

WEATHER ROUNDUP FOR COLORADO
NATIONAL WEATHER SERVICE DENVER/BOULDER CO
200 PM MDT SUN OCT 19 2014

NOTE: "FAIR" INDICATES FEW OR NO CLOUDS BELOW 12000 FEET WITH NO
SIGNIFICANT WEATHER AND/OR OBSTRUCTIONS TO VISIBILITY.

COZ001>005-013-030-031-192100-
...NORTHWEST COLORADO...

CITY           SKY/WX    TMP DP  RH WIND       PRES   REMARKS
CRAIG          SUNNY     69  32  25 CALM      30.15F
HAYDEN         SUNNY     66  28  24 N3        30.16F
MEEKER         SUNNY     69  33  26 CALM      30.14F
MOUNT WERNER   NOT AVBL
STEAMBOAT SPGS SUNNY     65  28  25 CALM      30.18F
WALDEN         SUNNY     59  21  23 CALM      30.25F
$$

COZ006>008-011-192100-
...WEST CENTRAL VALLEYS...

CITY           SKY/WX    TMP DP  RH WIND       PRES   REMARKS
GRAND JUNCTION MOSUNNY   73  43  33 CALM      30.07F
MONTROSE       MOSUNNY   71  35  26 N5        30.12F
EAGLE          MOSUNNY   64  34  32 SW3       30.18F
RIFLE          SUNNY     70  36  28 W3        30.10F
DELTA          MOSUNNY   75  34  22 N3        30.08F
NUCLA          MOSUNNY   70  36  28 NW10      30.16F
$$

COZ017>023-064>068-192100-
...SOUTHWEST COLORADO...

CITY           SKY/WX    TMP DP  RH WIND       PRES   REMARKS
DURANGO        MOSUNNY   66  41  40 VRB5      30.16F
CORTEZ         SUNNY     71  42  35 W8        30.11F
PAGOSA SPRINGS MOSUNNY   65  34  31 SW8       30.21F
TELLURIDE      LGT RAIN  52  32  46 SW15G21   30.32S
WOLF CREEK PAS CLOUDY    41  32  70 SW9       30.43F
$$

COZ009-010-012-014-032>034-037-058>063-192100-
...CENTRAL COLORADO...

CITY           SKY/WX    TMP DP  RH WIND       PRES   REMARKS
ASPEN          MOSUNNY   63  32  31 CALM      30.20F
BUENA VISTA    CLOUDY    62  30  29 E3        30.23F
COPPER MTN     MOSUNNY   46  23  39 SE7       30.45F
BERTHOUD PASS  PTSUNNY   37  36  93 N5        30.49F
COTTONWOOD PAS CLOUDY    55  30  38 S3        30.34F
GUNNISON       MOSUNNY   63  30  29 SW3       30.23F
KREMMLING      SUNNY     63  25  23 CALM        N/A
LEADVILLE      CLOUDY    51  27  39 S10       30.32F
SALIDA         PTSUNNY   68  32  25 N3        30.27F
SUNLIGHT       CLOUDY    52  34  50 CALM      30.40F
WILKERSON PASS NOT AVBL
$$

COZ069>075-192100-
...SAN LUIS VALLEY/SANGRE DE CRISTO MOUNTAINS...

CITY           SKY/WX    TMP DP  RH WIND       PRES   REMARKS
ALAMOSA        SUNNY     64  34  32 CALM      30.20F
LA VETA PASS   PTSUNNY   50  34  53 NE7       30.35F
SAGUACHE       MOSUNNY   63  34  34 SW7       30.23F
$$

COZ035-036-038>040-192100-
...NORTHERN COLORADO FRONT RANGE...

CITY           SKY/WX    TMP DP  RH WIND       PRES   REMARKS
DENVER INTL AP MOSUNNY   72  30  21 NE9       30.11F
DMNS CITY PARK   N/A     74  29  19 NE3G10    30.10F
AURORA         MOSUNNY   71  31  22 E3        30.13F
FRONT RANGE AP NOT AVBL
ERIE MUNI ARPT SUNNY     73  29  19 E5        30.09F
BOULDER MUN AP SUNNY     73  32  21 E6        30.09F
CENTENNIAL     MOSUNNY   70  30  22 VRB3      30.13F
BROOMFIELD     MOSUNNY   72  30  21 NE7       30.13F
FORT COLLINS   SUNNY     73  37  27 E9        30.09F
LONGMONT       SUNNY     77  32  19 E7        30.10F
$$

COZ041-046-047-076>085-087-088-192100-
...PIKES PEAK/PALMER DIVIDE AND SOUTHERN FOOTHILLS...

CITY           SKY/WX    TMP DP  RH WIND       PRES   REMARKS
COLO. SPRINGS  MOSUNNY   73  28  18 NE8       30.14F
A. F. ACADEMY  PTSUNNY   68  27  21 VRB5      30.15F
ELLICOTT       NOT AVBL
FALCON         MOSUNNY   69  26  19 NE6       30.19F
FORT CARSON    MOSUNNY   73  31  20 E8        30.11F
LIMON          SUNNY     72  32  23 NW10      30.10F
MONUMENT HILL  SUNNY     63  30  29 N5        30.19F
TRINIDAD       SUNNY     74  31  20 NE5G17    30.10F
$$

COZ042>045-048>051-090-091-192100-
...NORTHEAST COLORADO...

CITY           SKY/WX    TMP DP  RH WIND       PRES   REMARKS
GREELEY ARPT   SUNNY     73  34  23 NE7       30.08F
AKRON          SUNNY     73  40  30 VRB3      30.07F
BURLINGTON     SUNNY     75  39  27 N7        30.03F
WRAY           SUNNY     79  37  21 NE8       30.01F
STERLING       SUNNY     77  43  29 E5        30.04F
HOLYOKE        SUNNY     79  39  24 NE8       30.02F
FORT MORGAN    SUNNY     74  34  23 E7        30.08F
$$

COZ086-089-092>099-192100-
...SOUTHEAST COLORADO...

CITY           SKY/WX    TMP DP  RH WIND       PRES   REMARKS
PUEBLO         MOSUNNY   78  30  17 NE5       30.05F
LA JUNTA       SUNNY     80  37  21 VRB6      30.02F
LAMAR          SUNNY     76  45  33 W3        29.99F
SPRINGFIELD      N/A     76  41  28 VRB5      30.02F
$$


USA.gov is the U.S. government's official web portal to all federal, state and local government web resources and services.